Location: Carrer del Canonge
(41.4901°N, 2.2931°E)
Time: 13:45:26
(UTC+00:00)

ATLAS 2AS CENTAUR R/B - Pass Details

Date: 18 September 2020
Orbit: 939 x 1273 km, 63.7° (Epoch: 27 October)

Event Time Altitude Azimuth Distance (km) Brightness Sun altitude
Rises 19:10:51 0° 166° (SSE) 4,158 5.5 -15.0°
Reaches altitude 10° 19:14:21 10° 152° (SSE) 3,227 4.8 -15.6°
Enters shadow 19:16:58 17° 134° (SE) 2,718 4.3 -16.1°
Exits shadow 19:24:46 12° 65° (ENE) 3,095 4.7 -17.4°
Drops below altitude 10° 19:25:31 10° 61° (ENE) 3,265 4.8 -17.6°
Sets 19:29:03 0° 47° (NE) 4,221 5.5 -18.2°
